CAPE
1 0 0 0 0 2 2 0 0 1 2 1 0 0 0 0 0 0 0 0 0 646 487 303 744 1121 850 408 272 113 135 256 235 205 233 233 46 155 147 128 111 109 156 220 350
4 1 0 0 0 0 2 2 0 2 2 0 0 0 0 0 0 0 0 0 1 1100 128 1055 672 1368 1058 341 781 313 54 202 268 124 56 108 15 107 122 78 87 65 45 240 412
2 1 0 0 0 0 3 2 1 3 1 1 0 0 0 0 0 0 0 355 1228 642 169 861 181 453 1285 40 89 464 115 296 397 175 10 1 0 139 97 85 64 9 34 242 391
1 1 0 0 0 2 0 0 0 3 1 0 0 0 0 0 0 0 276 1147 1163 78 164 885 889 418 1066 524 197 5 204 123 129 108 109 0 15 179 121 90 3 0 4 187 256
0 0 0 0 0 0 0 0 0 2 1 0 0 0 0 0 0 484 1419 873 0 11 252 214 411 581 287 412 507 102 246 149 198 285 230 69 133 141 160 53 32 0 0 76 210
0 0 0 1 0 0 0 0 1 1 0 0 0 0 0 0 0 98 0 0 0 131 529 806 108 249 491 368 170 30 25 27 302 89 58 84 118 133 91 44 14 0 0 0 0
1 2 0 0 1 0 0 0 1 1 0 0 0 0 0 0 0 0 0 0 0 36 546 645 642 401 284 444 37 45 36 14 15 64 79 59 127 130 66 25 0 0 0 0 0
1 2 0 0 0 0 0 1 0 0 0 0 0 0 0 0 0 0 0 0 0 0 152 105 272 566 458 164 175 52 0 5 10 56 52 44 36 87 17 4 9 0 0 0 0
1 1 0 1 0 0 1 0 0 0 0 0 0 0 0 0 0 0 0 0 0 0 50 218 135 183 36 205 79 12 33 95 82 30 52 91 50 35 14 0 3 0 0 0 0
0 2 0 0 0 1 1 0 0 0 0 0 0 0 0 0 0 0 0 2 28 34 91 31 7 39 4 13 63 78 22 10 60 53 138 39 1 9 0 0 0 0 0 3 0
1 1 2 2 0 1 0 0 0 0 0 0 0 0 0 0 0 0 0 31 10 0 30 37 5 104 114 0 71 216 96 8 85 111 100 123 135 39 41 1 0 0 0 0 0
1 0 0 0 2 0 0 0 0 0 0 0 0 0 0 0 0 0 16 95 71 15 8 0 3 6 145 79 92 116 137 14 168 101 160 90 178 100 112 98 23 28 58 0 0
0 0 0 0 0 0 0 0 0 0 0 0 0 0 0 0 0 0 154 158 325 4 21 26 1 16 200 173 235 116 57 0 68 92 85 186 31 114 279 179 281 236 233 63 17
0 0 0 0 0 0 0 0 0 0 0 0 0 0 0 9 87 19 49 99 66 31 14 4 30 118 45 86 55 47 117 110 35 55 34 67 5 41 68 57 100 394 424 136 79
0 0 0 1 0 0 0 0 0 0 0 0 0 0 33 183 151 155 402 215 77 7 11 176 37 109 178 151 227 182 142 91 50 13 100 154 47 37 36 24 18 41 258 108 65
0 1 0 0 0 0 0 0 0 0 0 0 0 143 165 143 177 379 492 247 152 59 239 160 135 155 202 314 425 314 209 92 4 29 49 69 109 33 32 35 19 132 263 523 611
0 0 0 0 0 0 0 0 0 0 0 0 0 163 233 233 257 275 436 415 466 394 263 317 500 506 286 180 210 44 50 39 12 45 48 13 6 2 2 54 25 105 144 208 182
0 0 0 0 0 0 0 0 0 0 0 0 0 0 158 15 27 224 240 316 207 252 74 302 313 49 37 113 171 1 2 22 52 54 9 66 32 0 7 12 113 3 101 96 59
0 0 0 0 0 0 0 0 0 0 0 0 0 0 0 0 0 33 253 267 306 196 487 200 370 15 17 47 0 26 59 8 54 0 2 20 22 167 0 36 107 84 0 1 344
0 0 0 0 0 0 0 0 0 0 0 0 0 0 0 0 0 0 0 0 253 25 66 37 14 0 2 6 2 23 6 21 5 7 0 0 46 70 81 8 17 693 38 421 406
0 0 0 0 0 0 0 0 0 0 0 0 0 0 0 0 0 0 0 0 0 0 0 0 0 0 0 0 0 0 0 0 0 0 0 0 0 171 292 23 1 760 897 836 395
0 0 0 0 0 0 0 0 0 0 0 0 0 0 0 0 0 0 0 0 0 0 0 0 0 0 0 0 0 0 0 0 0 0 0 0 0 13 6 112 432 672 700 596 432
0 0 0 0 0 0 0 0 0 0 0 0 0 0 0 0 0 0 0 0 0 0 0 0 0 0 0 0 0 0 0 0 0 0 0 0 0 31 559 647 571 475 411 466 383
0 0 0 0 0 0 0 0 0 0 0 0 0 0 0 0 0 0 0 0 0 0 0 0 0 0 0 0 0 0 0 0 0 0 0 0 0 215 530 496 396 417 349 552 533
0 0 0 0 0 0 0 0 0 0 0 0 0 0 0 0 0 0 0 0 0 0 0 0 0 0 0 0 0 0 0 0 0 0 0 0 0 236 205 542 399 371 556 620 629
0 0 0 0 0 0 0 0 0 0 0 0 0 0 0 0 0 0 0 0 0 0 0 0 0 0 0 0 0 0 0 0 0 0 0 7 30 586 622 516 487 478 632 627 673
0 0 0 0 0 0 0 0 0 0 0 0 0 0 0 0 0 0 0 0 0 0 0 0 0 0 0 0 0 0 0 0 0 258 444 322 291 817 819 775 641 641 700 670 558
CIN
-0 -0 -0 -0 -0 -0 -0 -0 -0 -0 -0 -0 -0 -0 -0 -0 -0 -0 -0 -0 -0 -347 -258 -171 -153 -116 -137 -212 -270 -322 -131 -62 -57 -71 -49 -101 -172 -173 -162 -184 -182 -213 -224 -180 -111
-0 -0 -0 -0 -0 -0 -0 -0 -0 -0 -0 -0 -0 -0 -0 -0 -0 -0 -0 -0 -140 -310 -193 -85 -134 -100 -120 -214 -182 -202 -162 -83 -66 -136 -80 -80 -165 -143 -153 -160 -201 -231 -252 -203 -132
-0 -0 -0 -0 -0 -0 -0 -0 -0 -0 -0 -0 -0 -0 -0 -0 -0 -0 -0 -413 -385 -351 -168 -128 -171 -157 -99 -248 -223 -195 -138 -75 -47 -73 -72 -8 -0 -126 -162 -164 -203 -262 -296 -193 -130
-0 -0 -0 -0 -0 -0 -0 -0 -0 -0 -0 -0 -0 -0 -0 -0 -0 -0 -447 -394 -381 -410 -218 -100 -77 -136 -80 -110 -188 -29 -147 -126 -278 -163 -71 -0 -89 -109 -135 -160 -41 -0 -91 -210 -163
-0 -0 -0 -0 -0 -0 -0 -0 -0 -0 -0 -0 -0 -0 -0 -0 -0 -287 -383 -415 -0 -288 -172 -178 -140 -113 -76 -108 -130 -188 -75 -52 -143 -82 -74 -39 -119 -71 -123 -185 -216 -0 -0 -211 -179
-0 -0 -0 -0 -0 -0 -0 -0 -0 -0 -0 -0 -0 -0 -0 -0 -0 -501 -0 -0 -0 -222 -129 -104 -184 -175 -70 -79 -136 -137 -101 -88 -58 -58 -58 -56 -80 -112 -189 -225 -110 -0 -0 -0 -0
-0 -0 -0 -0 -0 -0 -0 -0 -0 -0 -0 -0 -0 -0 -0 -0 -0 -0 -0 -0 -0 -257 -113 -100 -112 -85 -84 -47 -106 -114 -107 -44 -68 -39 -56 -62 -66 -143 -219 -223 -0 -0 -0 -0 -0
-0 -0 -0 -0 -0 -0 -0 -0 -0 -0 -0 -0 -0 -0 -0 -0 -0 -0 -0 -0 -0 -0 -195 -188 -151 -81 -117 -124 -99 -119 -4 -46 -97 -95 -69 -69 -52 -125 -191 -204 -183 -0 -0 -0 -0
-0 -0 -0 -0 -0 -0 -0 -0 -0 -0 -0 -0 -0 -0 -0 -0 -0 -0 -0 -0 -0 -0 -210 -135 -207 -257 -282 -156 -114 -171 -55 -76 -80 -179 -71 -82 -45 -90 -167 -0 -81 -0 -0 -0 -0
-0 -0 -0 -0 -0 -0 -0 -0 -0 -0 -0 -0 -0 -0 -0 -0 -0 -0 -0 -36 -142 -185 -128 -176 -191 -232 -108 -223 -92 -116 -70 -103 -73 -72 -65 -146 -84 -173 -0 -0 -0 -0 -0 -107 -0
-0 -0 -0 -0 -0 -0 -0 -0 -0 -0 -0 -0 -0 -0 -0 -0 -0 -0 -0 -169 -120 -0 -111 -173 -154 -120 -178 -0 -145 -133 -149 -129 -71 -107 -93 -160 -128 -170 -237 -109 -0 -0 -0 -0 -0
-0 -0 -0 -0 -0 -0 -0 -0 -0 -0 -0 -0 -0 -0 -0 -0 -0 -0 -179 -123 -169 -144 -296 -0 -59 -219 -169 -215 -221 -194 -156 -124 -89 -138 -111 -190 -135 -241 -265 -240 -215 -164 -150 -0 -0
-0 -0 -0 -0 -0 -0 -0 -0 -0 -0 -0 -0 -0 -0 -0 -0 -0 -0 -188 -220 -137 -245 -205 -155 -64 -230 -119 -106 -130 -115 -114 -0 -57 -107 -184 -163 -155 -256 -291 -290 -195 -170 -138 -236 -124
-0 -0 -0 -0 -0 -0 -0 -0 -0 -0 -0 -0 -0 -0 -0 -228 -137 -237 -300 -205 -315 -156 -283 -205 -201 -161 -119 -72 -176 -106 -149 -87 -86 -83 -117 -222 -179 -276 -355 -330 -311 -210 -183 -246 -274
-0 -0 -0 -0 -0 -0 -0 -0 -0 -0 -0 -0 -0 -15 -252 -114 -107 -148 -222 -173 -114 -233 -216 -134 -233 -184 -180 -186 -173 -174 -226 -157 -144 -159 -135 -181 -187 -283 -474 -324 -372 -402 -247 -247 -335
-0 -0 -0 -0 -0 -0 -0 -0 -0 -0 -0 -0 -0 -136 -120 -137 -70 -86 -121 -246 -280 -271 -349 -218 -262 -255 -256 -177 -187 -162 -185 -293 -202 -230 -121 -209 -147 -184 -334 -383 -534 -470 -316 -253 -221
-0 -0 -0 -0 -0 -0 -0 -0 -0 -0 -0 -0 -0 -168 -94 -76 -62 -76 -103 -110 -77 -88 -111 -196 -193 -164 -146 -138 -226 -304 -209 -65 -82 -133 -94 -342 -221 -35 -76 -454 -472 -513 -401 -368 -336
-0 -0 -0 -0 -0 -0 -0 -0 -0 -0 -0 -0 -0 -0 -98 -17 -78 -71 -90 -100 -163 -172 -170 -63 -37 -135 -231 -122 -130 -28 -42 -84 -13 -51 -55 -297 -198 -0 -67 -643 -535 -69 -491 -461 -502
-0 -0 -0 -0 -0 -0 -0 -0 -0 -0 -0 -0 -0 -0 -0 -0 -0 -71 -89 -85 -80 -173 -54 -107 -63 -166 -225 -327 -20 -262 -178 -196 -96 -0 -167 -141 -361 -407 -0 -600 -606 -621 -0 -62 -449
-0 -0 -0 -0 -0 -0 -0 -0 -0 -0 -0 -0 -0 -0 -0 -0 -0 -0 -0 -0 -110 -99 -207 -75 -45 -0 -93 -253 -69 -145 -258 -106 -12 -20 -0 -0 -223 -152 -522 -634 -598 -391 -268 -452 -429
-0 -0 -0 -0 -0 -0 -0 -0 -0 -0 -0 -0 -0 -0 -0 -0 -0 -0 -0 -0 -0 -0 -0 -0 -0 -0 -0 -0 -0 -0 -0 -0 -0 -0 -0 -0 -0 -382 -413 -250 -170 -283 -276 -302 -421
-0 -0 -0 -0 -0 -0 -0 -0 -0 -0 -0 -0 -0 -0 -0 -0 -0 -0 -0 -0 -0 -0 -0 -0 -0 -0 -0 -0 -0 -0 -0 -0 -0 -0 -0 -0 -0 -673 -182 -616 -421 -289 -303 -323 -389
-0 -0 -0 -0 -0 -0 -0 -0 -0 -0 -0 -0 -0 -0 -0 -0 -0 -0 -0 -0 -0 -0 -0 -0 -0 -0 -0 -0 -0 -0 -0 -0 -0 -0 -0 -0 -0 -732 -467 -413 -370 -374 -397 -374 -414
-0 -0 -0 -0 -0 -0 -0 -0 -0 -0 -0 -0 -0 -0 -0 -0 -0 -0 -0 -0 -0 -0 -0 -0 -0 -0 -0 -0 -0 -0 -0 -0 -0 -0 -0 -0 -0 -487 -466 -491 -513 -461 -471 -373 -385
-0 -0 -0 -0 -0 -0 -0 -0 -0 -0 -0 -0 -0 -0 -0 -0 -0 -0 -0 -0 -0 -0 -0 -0 -0 -0 -0 -0 -0 -0 -0 -0 -0 -0 -0 -0 -0 -285 -567 -499 -552 -534 -416 -361 -362
-0 -0 -0 -0 -0 -0 -0 -0 -0 -0 -0 -0 -0 -0 -0 -0 -0 -0 -0 -0 -0 -0 -0 -0 -0 -0 -0 -0 -0 -0 -0 -0 -0 -0 -0 -3 -279 -462 -453 -449 -447 -494 -426 -429 -421
-0 -0 -0 -0 -0 -0 -0 -0 -0 -0 -0 -0 -0 -0 -0 -0 -0 -0 -0 -0 -0 -0 -0 -0 -0 -0 -0 -0 -0 -0 -0 -0 -0 -134 -164 -114 -170 -369 -340 -348 -428 -433 -409 -393 -373
Wind_Speed
12 12 12 12 12 12 11 11 11 10 10 11 12 12 12 12 12 2 5 8 4 8 1 6 6 7 4 3 2 1 4 1 3 4 3 6 7 7 5 12 2 4 7 9 16
11 12 12 12 12 12 11 11 10 10 10 11 12 12 11 11 2 6 9 5 6 12 4 2 4 3 3 3 2 2 2 0 1 3 4 6 15 11 7 9 3 11 9 18 18
13 12 12 12 12 12 12 11 10 10 10 11 11 11 10 8 2 6 8 8 10 10 3 3 5 2 3 2 2 1 2 2 8 4 5 11 9 4 16 3 11 19 18 20 19
14 13 13 12 12 12 12 12 10 9 10 11 11 11 11 2 1 3 3 9 10 2 4 4 2 2 2 1 3 2 7 3 3 6 2 8 7 7 8 6 15 16 19 20 17
15 13 13 12 12 12 12 11 10 9 9 9 10 9 3 1 7 2 12 11 7 5 1 3 3 3 1 2 4 3 3 8 12 13 7 8 5 6 8 14 13 13 18 20 17
16 14 12 13 12 12 12 11 10 9 9 9 9 9 1 2 3 9 9 6 6 5 4 6 6 4 2 0 2 5 7 13 10 5 9 12 4 7 6 16 14 14 13 15 18
16 15 13 13 12 12 11 12 11 9 8 8 6 3 1 7 4 7 9 6 5 5 4 3 5 2 1 2 2 9 7 6 7 2 4 6 4 2 16 15 16 15 13 11 11
17 15 14 12 12 12 12 12 11 10 7 5 4 2 5 4 6 6 4 2 4 2 3 2 5 3 3 3 3 4 5 5 5 7 2 5 4 5 12 16 15 16 13 12 9
17 15 14 12 12 12 12 13 10 5 3 2 0 1 6 2 3 5 3 2 3 3 4 4 2 3 5 3 3 5 2 1 7 3 1 4 2 7 11 12 14 15 14 13 8
17 14 14 12 11 12 14 6 2 2 1 3 4 2 2 5 4 5 5 1 3 2 2 6 6 4 4 3 3 3 4 4 3 2 2 2 7 6 7 9 11 13 13 12 8
17 14 12 11 10 9 7 4 4 2 1 7 5 2 1 3 3 6 5 6 3 7 3 4 6 2 2 1 4 4 5 7 3 5 3 5 5 7 11 12 11 11 12 13 10
17 14 12 10 7 6 1 3 4 3 5 9 3 6 4 2 3 5 7 4 3 4 2 5 3 9 8 12 9 7 8 4 1 9 5 5 3 7 9 16 14 12 7 6 5
17 14 11 8 5 1 2 6 4 5 2 5 6 5 6 8 6 7 6 4 4 6 6 3 5 3 9 4 4 3 3 3 1 5 1 2 6 6 8 2 1 3 1 3 6
16 14 10 6 2 2 3 4 9 5 6 5 3 6 5 6 3 3 4 5 2 7 7 1 4 3 5 7 6 2 3 10 7 5 5 5 6 7 5 6 5 4 5 6 5
16 13 7 4 1 3 3 3 3 4 5 1 3 1 7 9 6 4 4 3 3 3 6 3 6 9 5 8 10 11 6 8 8 3 4 2 2 9 3 6 7 4 9 7 5
16 9 3 2 0 8 8 5 4 8 2 0 5 5 7 3 3 4 4 8 4 3 1 7 6 8 11 13 17 2 3 5 6 4 2 5 7 9 5 6 3 4 6 8 7
16 7 5 2 4 5 6 5 7 5 4 3 5 5 8 6 4 6 8 7 6 2 3 1 6 4 6 3 3 4 5 4 3 1 8 3 3 11 2 7 8 10 9 10 10
15 5 9 6 1 7 5 8 4 3 6 1 3 5 3 1 6 7 3 8 6 2 2 1 8 7 6 7 8 6 8 6 6 5 5 2 8 6 5 4 3 2 3 4 7
2 2 2 4 7 2 7 5 7 6 4 2 4 4 3 3 5 3 11 8 6 12 9 4 7 3 4 3 3 5 5 6 3 3 2 4 6 1 3 2 1 1 3 4 6
1 2 4 2 6 6 7 5 5 6 1 4 4 4 5 2 0 1 8 5 8 9 7 4 1 2 4 1 0 2 4 4 4 3 4 5 6 5 7 8 4 4 6 6 3
2 4 4 5 5 7 3 6 6 7 3 3 4 3 0 1 1 1 1 3 3 2 7 6 4 4 1 1 2 4 3 5 5 4 2 3 7 5 13 14 8 4 3 4 4
3 4 4 3 5 1 2 6 5 6 2 3 5 3 2 3 1 2 3 3 2 3 3 2 6 2 5 2 1 1 2 5 6 6 3 5 8 4 4 11 13 8 6 3 4
3 1 3 6 2 3 6 6 4 3 2 2 2 2 1 1 3 5 5 7 8 3 4 4 3 4 10 9 6 3 1 3 4 3 4 4 8 2 6 12 12 10 6 4 4
4 3 6 5 1 2 3 4 6 7 5 5 2 3 5 7 6 2 6 5 7 4 7 9 4 7 7 8 4 3 2 3 4 3 3 7 8 5 7 13 14 11 9 7 6
4 1 3 2 3 3 2 2 2 5 5 9 6 5 1 4 3 3 4 7 5 8 5 6 3 5 7 6 4 4 5 4 5 6 6 9 7 3 12 15 14 10 10 11 9
3 3 5 1 4 3 5 7 4 3 3 3 5 4 3 3 4 1 1 1 4 6 3 3 3 2 3 5 6 5 8 6 3 5 7 5 8 3 8 12 12 14 12 12 13
3 2 4 3 4 3 1 2 4 3 2 4 2 3 1 4 7 5 6 4 5 5 3 3 6 4 6 2 4 5 6 5 3 1 3 6 7 6 6 10 13 14 15 13 9
Wind_Direction
346 341 337 333 331 333 337 336 338 337 331 323 318 320 322 327 311 161 247 220 161 153 154 155 208 127 111 88 86 68 63 137 179 190 217 161 125 163 90 133 175 224 126 139 138
346 340 335 331 331 331 331 331 335 333 326 320 317 319 323 332 288 245 247 242 199 146 197 131 104 126 100 90 126 118 81 158 249 236 175 149 142 154 120 152 58 102 97 132 141
345 339 333 330 331 328 330 330 333 330 321 317 315 317 318 320 321 248 199 162 143 162 319 90 101 18 51 27 40 66 200 49 9 321 163 142 138 104 133 190 177 150 144 150 155
345 341 333 331 330 328 327 329 331 328 319 314 314 316 318 260 117 304 168 123 120 164 307 144 186 120 104 220 173 329 239 271 176 274 279 147 139 131 163 196 171 152 146 156 162
344 341 334 331 327 326 328 327 327 324 314 309 310 318 303 327 253 144 108 117 116 156 262 69 357 38 45 278 155 224 277 170 205 223 231 120 224 168 194 142 150 154 150 162 170
342 341 337 326 326 325 325 324 322 318 308 304 308 316 286 302 115 147 119 136 150 184 186 169 177 240 275 137 303 313 299 285 182 192 148 137 178 102 150 145 153 167 177 166 176
342 337 335 327 324 324 322 320 314 307 298 294 298 287 66 236 124 153 144 185 195 182 168 222 158 90 306 338 201 329 329 33 26 353 89 101 30 213 146 152 160 177 188 193 180
343 335 331 327 323 324 317 312 306 299 287 268 278 270 242 308 127 144 212 213 253 230 323 225 122 164 23 302 47 44 9 15 329 357 83 87 273 112 157 159 173 185 197 203 200
339 332 328 324 322 319 310 307 290 265 295 129 260 357 287 337 169 203 174 216 189 176 258 261 81 101 19 62 33 34 287 143 334 338 59 80 253 143 171 183 184 195 204 209 189
336 332 324 320 321 315 312 266 140 292 191 206 257 5 279 228 213 177 197 287 45 76 110 48 46 57 22 79 147 311 334 320 243 329 84 142 118 134 171 194 213 216 205 212 184
335 332 323 315 318 323 347 96 43 37 301 192 202 252 138 240 134 206 159 129 81 55 99 359 70 129 232 237 154 177 218 248 345 333 66 319 162 192 191 200 198 206 222 206 186
334 331 321 313 310 325 280 158 206 194 306 221 242 281 266 339 189 254 121 119 86 62 12 35 162 215 176 207 201 239 268 279 37 6 106 10 302 243 227 209 194 201 210 207 164
332 329 320 309 317 303 171 236 242 44 147 289 186 185 221 140 214 233 107 117 112 149 148 152 222 188 229 234 165 341 39 316 18 346 38 266 284 199 241 254 168 234 144 121 193
331 328 321 306 311 188 248 225 242 164 71 283 224 263 145 119 235 146 108 131 85 181 137 155 180 162 355 0 86 286 261 212 169 126 252 43 271 257 226 231 208 210 183 175 164
330 326 315 273 288 173 202 303 190 63 77 177 194 58 141 154 146 237 159 81 205 164 126 242 186 165 196 214 159 233 209 188 160 154 63 218 19 271 31 254 252 184 190 183 151
326 314 275 180 232 243 302 317 64 44 56 265 155 146 128 239 224 117 150 62 98 103 155 179 177 180 205 228 199 285 150 46 42 58 280 212 155 275 204 222 207 156 156 164 174
323 289 194 319 229 323 313 48 46 109 335 227 199 153 178 183 236 161 174 184 182 110 273 170 197 213 177 102 54 72 50 351 16 356 228 320 152 247 252 221 188 172 190 188 187
321 219 222 232 289 358 38 50 78 224 236 275 116 72 171 158 232 203 167 230 220 136 82 178 317 178 181 190 179 183 150 164 226 205 250 40 233 270 327 347 67 59 17 12 335
354 182 258 266 183 137 70 68 202 204 254 89 70 96 314 278 171 166 195 220 238 178 189 158 275 302 181 118 151 186 184 195 160 58 75 232 286 98 32 26 141 167 77 27 15
136 74 263 148 144 62 72 231 240 215 305 70 111 152 201 261 171 102 166 214 246 208 174 227 280 239 0 101 26 152 181 29 8 256 266 270 276 239 232 225 251 237 156 119 81
63 53 278 159 75 49 138 234 270 261 276 109 174 140 289 284 229 140 322 279 181 8 114 137 124 287 350 111 221 7 1 43 119 136 196 315 273 194 220 206 172 180 87 80 97
90 59 310 352 54 34 199 200 260 268 346 44 109 125 133 191 109 118 324 245 353 167 119 157 137 166 229 275 343 4 113 129 115 273 190 154 272 294 299 162 151 155 144 113 88
82 252 323 86 95 313 291 282 230 310 20 73 57 13 129 129 103 38 341 301 1 359 144 187 22 36 348 357 351 52 358 115 129 94 238 140 263 122 107 132 155 157 161 160 137
79 51 333 48 104 203 294 282 334 353 60 58 33 74 51 38 2 78 1 336 351 46 73 82 95 148 185 212 191 256 242 195 135 113 231 233 276 185 173 165 164 167 171 172 173
32 195 181 295 313 326 284 323 347 22 19 30 24 34 94 46 35 31 358 332 347 350 37 94 143 188 222 232 219 235 245 272 202 217 167 252 217 251 191 181 177 171 176 177 178
82 60 1 282 313 333 2 345 6 358 76 6 83 340 43 121 160 230 132 252 247 333 47 3 252 194 277 272 230 255 261 268 239 233 247 263 263 231 151 145 169 185 191 189 188
330 360 103 304 343 68 297 319 348 310 316 148 190 123 306 212 193 206 198 193 218 198 238 160 138 107 246 325 341 317 251 263 222 210 218 227 245 148 165 180 186 192 198 197 193